Temp
12 11 11 10 10 10 10 10 10 10 10 10 10 10 10 9 9 9 9 9 9 10 10 10 10 9 9 9 9 9 9 9 9 9 9 9 8 8 8 8 8 8 8
11 11 11 10 10 10 10 10 10 10 10 11 10 10 10 10 10 10 10 10 10 10 10 10 10 10 9 9 9 9 9 9 9 9 9 9 9 8 8 8 8 8 8
11 11 11 10 10 10 10 10 10 10 10 10 10 10 10 10 10 10 10 10 10 10 10 10 10 10 10 10 10 10 10 10 10 10 9 9 9 9 9 9 8 8 8
11 11 11 10 10 10 10 10 10 10 10 10 10 10 10 10 10 10 10 10 10 10 10 10 10 10 10 10 10 10 10 10 10 10 10 10 10 10 10 9 9 9 9
11 11 10 10 10 10 10 10 10 10 10 10 10 10 10 10 10 10 10 10 10 10 10 10 10 11 11 11 10 10 10 10 10 10 10 10 10 10 10 10 9 9 9
11 11 10 10 9 9 10 10 10 10 10 10 10 10 10 10 10 10 10 10 10 10 11 11 11 11 11 11 10 10 10 10 10 10 10 10 10 10 10 9 9 9 9
11 11 10 9 9 9 9 10 10 10 10 10 10 10 10 10 10 10 10 10 10 11 11 11 11 11 11 11 10 10 10 10 10 10 10 10 10 10 10 9 9 9 9
11 11 10 9 9 9 9 10 10 10 10 10 10 10 10 10 10 10 10 10 10 10 11 11 11 11 11 10 10 10 10 10 10 10 10 10 10 10 9 9 9 9 9
10 10 10 9 9 9 9 9 10 10 10 10 10 10 10 10 10 10 10 10 10 10 11 11 11 11 11 10 10 10 10 10 10 10 9 9 10 10 9 9 9 9 9
10 10 10 9 9 9 9 9 9 10 10 10 10 10 10 10 10 10 10 10 10 10 10 11 11 11 11 10 10 10 10 10 10 9 9 9 9 9 9 9 9 9 9
9 10 10 9 9 9 9 9 9 9 9 9 9 9 10 10 10 10 10 10 10 10 10 10 10 10 10 10 10 10 10 10 9 9 9 9 9 9 9 9 8 8 8
9 10 10 9 8 8 8 8 9 9 9 9 9 9 9 10 10 10 10 10 10 10 10 10 10 10 10 10 10 10 10 9 9 9 9 9 9 9 8 8 8 8 8
9 9 9 9 8 8 8 8 8 9 9 9 9 9 9 9 9 10 10 10 9 9 10 10 10 10 10 9 9 10 9 9 9 9 9 8 8 8 8 8 7 7 7
9 9 9 9 8 8 8 7 8 8 8 9 9 9 9 9 9 9 9 9 9 9 9 9 9 9 9 9 9 9 9 9 8 8 8 8 8 7 7 7 7 7 6
8 8 8 8 8 7 7 7 7 8 8 8 8 9 8 9 9 9 9 9 9 9 9 9 9 9 9 9 9 9 9 8 8 8 8 7 7 7 7 7 7 6 6
6 7 7 7 7 7 7 7 7 7 7 8 8 8 8 8 8 8 8 9 9 9 8 8 8 8 8 8 8 8 8 8 8 7 7 7 7 6 6 6 6 6 6
5 5 6 6 6 6 6 6 6 7 7 7 7 7 8 8 8 8 8 8 8 8 8 8 8 8 8 8 8 8 8 7 7 7 7 6 6 6 6 6 6 6 6
3 4 5 5 5 5 5 5 5 6 6 7 7 7 7 7 7 8 8 8 8 8 8 8 8 7 7 7 7 7 7 7 6 6 6 6 6 6 5 5 5 5 5
2 2 4 5 5 4 4 5 5 5 6 6 7 7 7 7 7 7 7 7 7 7 7 7 7 7 7 7 6 6 6 6 6 6 5 5 5 5 5 5 5 5 5
4 3 3 5 4 5 4 4 4 5 6 6 6 6 6 6 6 7 7 7 7 7 7 6 6 6 6 6 6 6 6 5 5 5 5 5 4 4 4 4 4 4 4
3 3 4 2 1 3 2 4 4 4 5 5 5 5 6 6 6 6 6 6 6 6 6 6 6 6 6 5 5 5 5 5 5 5 4 4 4 4 4 3 3 3 3
2 3 3 3 3 2 2 3 4 4 3 4 5 5 5 5 5 5 5 5 5 6 5 5 5 5 5 5 5 4 4 4 4 4 3 3 3 3 3 3 2 2 2
2 3 2 3 3 2 2 2 2 4 5 4 4 4 4 4 4 4 4 4 4 5 5 5 4 4 4 4 4 3 3 3 3 3 3 3 2 2 2 2 1 1 1
2 3 3 3 2 3 3 2 2 2 2 3 3 3 3 4 3 4 4 4 4 4 4 4 4 3 3 3 3 3 3 3 2 2 2 2 2 2 2 1 0 1 1
2 3 3 3 3 3 3 2 2 2 2 3 3 3 3 3 3 3 3 3 3 3 3 3 3 2 2 2 2 2 2 2 1 1 1 1 1 1 1 1 1 0 -0
2 2 3 3 3 3 2 3 2 2 3 1 1 1 3 3 3 2 3 2 2 2 2 1 1 1 1 1 1 1 1 1 1 1 0 -0 0 -0 -0 -0 -0 -0 -1
Height
3146 3147 3148 3150 3152 3153 3155 3156 3158 3158 3159 3159 3159 3159 3160 3160 3161 3162 3163 3164 3164 3165 3165 3165 3165 3165 3164 3163 3163 3162 3162 3162 3161 3161 3161 3160 3160 3159 3159 3158 3158 3158 3158
3145 3146 3147 3149 3151 3153 3155 3156 3157 3158 3159 3159 3159 3159 3160 3161 3162 3163 3164 3165 3165 3165 3166 3166 3165 3165 3164 3164 3163 3162 3162 3162 3162 3162 3161 3161 3160 3159 3159 3159 3159 3158 3158
3143 3144 3146 3148 3150 3152 3155 3156 3157 3158 3158 3159 3159 3160 3160 3161 3162 3163 3164 3165 3165 3165 3165 3165 3164 3164 3163 3163 3162 3162 3161 3162 3162 3162 3162 3161 3161 3160 3160 3159 3159 3158 3158
3141 3143 3145 3146 3149 3151 3154 3155 3157 3158 3158 3159 3159 3160 3161 3162 3163 3164 3164 3165 3166 3166 3165 3165 3164 3163 3163 3162 3162 3162 3162 3162 3162 3162 3162 3162 3161 3161 3160 3159 3159 3158 3158
3138 3141 3143 3145 3148 3150 3153 3155 3156 3157 3158 3159 3159 3160 3161 3162 3163 3164 3164 3165 3166 3166 3166 3165 3164 3163 3163 3163 3163 3163 3163 3163 3162 3162 3162 3162 3161 3161 3160 3159 3159 3158 3158
3136 3138 3141 3143 3146 3149 3151 3154 3155 3156 3157 3158 3159 3160 3160 3161 3162 3163 3164 3164 3165 3166 3165 3165 3164 3164 3163 3164 3164 3164 3164 3163 3162 3162 3161 3161 3160 3160 3160 3159 3158 3158 3157
3134 3135 3138 3141 3144 3147 3149 3152 3154 3155 3156 3157 3158 3159 3159 3161 3162 3163 3164 3164 3165 3165 3165 3165 3165 3165 3165 3165 3165 3165 3164 3164 3163 3162 3161 3161 3160 3160 3159 3159 3158 3157 3156
3131 3132 3134 3137 3141 3144 3147 3150 3152 3154 3155 3156 3157 3158 3159 3160 3161 3162 3163 3164 3165 3165 3165 3165 3165 3166 3166 3166 3165 3164 3164 3164 3163 3163 3162 3161 3160 3159 3158 3158 3157 3156 3155
3127 3128 3131 3134 3137 3141 3144 3147 3149 3152 3154 3155 3156 3157 3157 3159 3160 3161 3162 3163 3164 3164 3164 3165 3165 3165 3167 3166 3165 3164 3164 3164 3163 3163 3162 3161 3160 3159 3158 3157 3156 3155 3154
3121 3124 3127 3130 3134 3138 3141 3144 3146 3149 3151 3153 3154 3156 3157 3158 3159 3160 3161 3162 3163 3163 3164 3164 3165 3165 3166 3166 3165 3164 3164 3164 3163 3162 3162 3161 3159 3159 3158 3156 3155 3154 3152
3115 3119 3123 3127 3131 3134 3138 3141 3143 3146 3148 3150 3152 3154 3155 3158 3159 3160 3160 3161 3163 3162 3163 3164 3165 3164 3165 3165 3165 3164 3163 3163 3163 3162 3161 3161 3159 3158 3157 3156 3154 3153 3152
3112 3114 3118 3122 3127 3131 3134 3138 3140 3143 3146 3149 3151 3152 3154 3156 3158 3159 3160 3161 3161 3161 3162 3164 3164 3165 3165 3165 3165 3165 3164 3163 3162 3161 3160 3160 3158 3157 3156 3155 3154 3152 3151
3109 3111 3114 3118 3123 3128 3132 3135 3138 3141 3145 3147 3149 3151 3152 3154 3156 3158 3159 3160 3160 3160 3160 3162 3164 3164 3165 3165 3164 3164 3164 3163 3162 3161 3160 3158 3157 3156 3155 3154 3153 3151 3149
3101 3108 3111 3115 3120 3124 3128 3132 3136 3139 3143 3145 3148 3150 3151 3153 3154 3156 3158 3159 3159 3159 3160 3160 3162 3163 3163 3165 3163 3162 3162 3162 3161 3160 3158 3157 3156 3155 3154 3152 3151 3150 3148
3093 3101 3107 3111 3116 3121 3126 3130 3134 3138 3141 3143 3146 3148 3150 3152 3153 3155 3157 3158 3158 3158 3159 3159 3161 3162 3162 3163 3162 3161 3161 3160 3159 3158 3156 3155 3154 3153 3152 3150 3149 3148 3146
3090 3097 3103 3107 3111 3117 3122 3127 3131 3135 3139 3142 3145 3146 3148 3150 3152 3153 3155 3156 3157 3158 3157 3158 3159 3160 3161 3160 3160 3160 3159 3158 3157 3156 3155 3153 3152 3151 3150 3149 3147 3146 3144
3089 3095 3099 3104 3108 3112 3118 3123 3127 3132 3135 3138 3142 3144 3146 3148 3150 3151 3153 3154 3155 3156 3156 3156 3157 3158 3158 3159 3158 3159 3157 3156 3155 3154 3152 3151 3150 3149 3147 3146 3144 3143 3141
3075 3083 3096 3101 3104 3109 3115 3119 3124 3128 3132 3136 3139 3142 3144 3146 3147 3149 3151 3152 3153 3154 3155 3154 3155 3155 3156 3156 3156 3156 3155 3154 3152 3150 3150 3148 3148 3146 3145 3143 3141 3139 3138
3075 3077 3085 3095 3101 3103 3110 3116 3120 3124 3129 3133 3137 3139 3142 3143 3145 3146 3148 3149 3151 3151 3153 3152 3152 3152 3152 3152 3152 3152 3152 3151 3150 3147 3145 3144 3143 3143 3141 3139 3137 3136 3134
3081 3082 3084 3085 3095 3096 3103 3109 3114 3119 3124 3128 3132 3136 3139 3140 3142 3143 3145 3147 3149 3149 3150 3149 3148 3148 3149 3149 3148 3147 3147 3147 3146 3145 3143 3141 3140 3138 3136 3135 3133 3131 3130
3078 3083 3089 3079 3079 3092 3092 3105 3109 3115 3120 3124 3128 3131 3134 3137 3139 3140 3141 3144 3145 3146 3147 3147 3146 3145 3145 3145 3144 3143 3143 3142 3141 3140 3139 3137 3136 3135 3133 3131 3129 3128 3126
3076 3080 3083 3088 3084 3086 3093 3099 3105 3110 3115 3119 3124 3127 3130 3132 3133 3136 3137 3139 3141 3142 3143 3143 3142 3142 3142 3141 3140 3139 3138 3138 3136 3135 3134 3133 3132 3130 3129 3127 3125 3124 3122
3071 3076 3080 3083 3085 3086 3094 3095 3099 3105 3113 3118 3121 3124 3126 3128 3128 3130 3133 3136 3137 3137 3138 3139 3138 3138 3138 3136 3135 3135 3134 3133 3132 3131 3129 3127 3126 3125 3124 3122 3120 3119 3117
3069 3072 3075 3079 3081 3085 3091 3093 3099 3103 3105 3110 3115 3116 3120 3123 3124 3125 3127 3130 3132 3132 3133 3134 3133 3133 3133 3132 3131 3131 3130 3129 3127 3127 3124 3121 3120 3120 3119 3117 3115 3113 3112
3065 3068 3073 3076 3081 3084 3088 3085 3095 3100 3103 3104 3106 3111 3115 3117 3119 3120 3123 3125 3126 3128 3128 3127 3127 3127 3127 3126 3126 3126 3125 3123 3122 3121 3119 3117 3115 3114 3112 3110 3109 3108 3106
3060 3064 3068 3074 3077 3081 3085 3089 3092 3094 3098 3097 3101 3103 3113 3115 3117 3117 3119 3121 3122 3122 3122 3122 3121 3122 3121 3120 3121 3120 3119 3118 3117 3115 3114 3112 3110 3109 3107 3105 3103 3100 3098
Wind_Speed
17 15 13 14 16 17 15 14 12 10 9 8 10 12 14 14 13 12 12 12 11 10 8 7 6 4 4 3 3 3 3 4 4 5 5 4 4 4 4 4 3 3 3
12 15 14 16 17 16 15 15 13 10 9 9 12 14 14 15 14 12 11 10 9 8 7 5 4 4 2 2 3 3 4 5 6 6 6 6 6 6 5 4 3 3 3
14 17 17 17 18 16 15 14 13 12 10 10 11 12 13 13 13 12 10 8 7 6 6 5 4 3 4 4 5 6 7 8 8 9 8 8 7 7 6 6 5 5 6
16 19 19 19 17 15 15 15 13 12 11 11 11 12 13 12 12 11 10 8 6 6 5 5 5 5 5 5 7 7 8 9 9 7 6 5 6 6 6 6 6 6 6
18 19 19 20 18 16 15 15 14 13 12 11 11 12 12 11 10 10 8 7 6 5 6 6 6 6 5 6 7 7 8 8 8 7 6 4 3 4 4 4 5 5 5
14 19 20 21 19 18 16 15 15 13 12 11 12 12 11 10 10 9 8 7 6 5 6 6 6 7 8 8 8 8 8 8 8 8 7 5 4 4 4 5 5 5 6
14 18 21 22 20 19 17 17 16 14 13 12 11 11 11 11 10 9 9 8 7 6 6 6 6 7 8 9 8 7 6 6 6 7 6 5 4 5 5 5 6 6 6
17 16 21 24 23 21 18 17 17 15 14 12 12 12 12 11 10 9 9 8 6 6 6 6 5 5 7 8 7 5 5 6 5 6 5 5 5 6 6 7 7 7 8
24 20 22 26 26 23 20 18 18 17 14 13 12 11 11 11 10 10 9 8 7 7 6 5 5 4 6 6 5 5 6 7 6 6 6 5 6 6 6 7 7 8 8
28 25 22 27 28 25 22 19 18 18 15 14 13 11 10 10 10 10 9 8 7 7 6 5 3 3 5 4 4 5 6 6 6 6 6 6 6 7 7 7 7 7 8
33 28 25 25 27 25 23 21 19 19 17 15 14 13 11 10 10 9 9 9 7 7 6 4 2 2 3 3 4 5 6 7 6 6 6 6 7 7 8 7 7 8 8
34 31 28 27 28 27 25 23 21 20 19 17 16 14 12 11 10 9 9 9 9 8 6 3 2 1 3 3 4 5 5 5 6 7 7 7 8 9 9 9 10 9 9
35 32 30 29 29 27 25 23 22 21 19 18 17 15 14 12 11 10 10 10 9 8 7 4 2 0 2 2 4 5 6 7 7 8 8 9 9 9 10 10 10 10 10
37 32 31 29 30 29 27 24 22 22 20 19 17 15 14 13 12 11 10 9 8 7 6 4 1 1 2 3 5 6 7 7 8 9 9 10 11 11 11 11 11 12 12
38 34 34 32 31 30 28 24 22 22 21 20 18 16 14 13 12 11 10 9 7 6 4 3 1 2 4 5 6 8 9 10 10 10 11 11 12 13 13 13 13 14 14
34 33 32 33 31 30 27 24 23 23 21 19 18 17 16 14 13 11 10 9 7 6 5 3 3 3 5 6 7 9 11 11 12 12 12 13 13 14 15 15 15 15 15
33 27 29 30 30 30 29 26 24 23 23 21 19 18 16 14 13 11 11 10 9 8 5 4 4 5 6 7 9 10 12 13 13 13 14 14 15 15 15 16 17 18 18
37 33 29 29 31 31 29 27 25 23 23 21 20 19 17 15 14 13 12 11 10 8 7 5 5 6 7 8 11 12 13 13 14 15 15 16 16 17 17 18 18 18 19
17 28 32 27 29 34 30 29 26 24 22 21 20 19 17 15 15 14 13 12 11 9 8 7 6 6 9 10 12 13 14 15 14 15 15 16 16 17 17 19 19 20 20
19 15 25 31 30 44 34 32 28 26 24 23 22 20 18 17 16 15 13 13 13 11 10 9 9 9 11 12 13 14 15 16 16 15 16 16 16 18 18 19 19 20 20
25 24 24 36 22 33 30 28 26 24 24 23 21 21 20 18 17 16 15 15 15 15 13 12 11 12 13 15 14 15 16 17 17 17 17 18 18 19 20 20 20 20 20
25 26 28 23 21 23 27 36 30 25 23 23 24 23 22 21 19 19 19 18 18 16 16 16 15 14 15 16 16 16 17 17 19 19 18 19 19 19 20 20 19 20 21
27 23 27 22 24 17 22 36 37 29 28 26 24 23 22 22 20 20 19 19 19 18 18 18 17 17 18 18 18 18 19 19 20 20 20 20 19 19 19 19 20 20 21
29 25 18 29 19 26 27 25 36 39 29 33 29 26 25 25 23 23 22 22 23 20 20 20 20 19 19 19 19 21 21 22 21 22 21 22 22 22 21 20 20 22 23
21 27 27 19 25 28 27 30 28 34 43 35 37 28 26 27 26 24 24 25 23 22 23 22 21 21 21 19 22 23 24 24 23 22 22 22 23 23 22 23 24 26 27
23 20 27 22 19 28 21 22 22 23 34 27 21 30 28 26 27 24 25 25 25 27 25 22 22 22 21 21 23 25 25 25 23 22 22 24 24 24 24 26 28 30 32
Wind_Direction
203 195 193 191 187 184 183 176 174 171 169 164 148 138 133 132 131 128 123 119 116 112 109 105 96 86 82 66 32 16 18 17 23 30 30 33 46 60 41 43 42 39 28
200 201 192 183 186 187 185 181 175 172 166 152 140 137 137 136 135 133 130 126 121 116 108 98 93 88 68 51 35 16 39 57 56 54 50 47 51 64 61 58 50 36 20
198 198 192 183 185 192 191 185 177 168 162 148 144 143 142 141 140 138 134 130 122 112 98 81 65 58 59 60 65 70 69 68 63 58 53 47 53 60 63 56 49 36 28
205 198 196 188 190 195 195 189 181 172 163 153 150 150 146 147 145 144 140 134 122 101 76 59 61 64 59 65 81 82 70 59 54 52 60 47 47 50 51 48 39 24 16
202 197 198 195 195 198 200 194 185 179 167 158 155 154 151 150 149 146 140 131 116 89 70 67 67 62 57 70 88 78 64 51 48 41 41 34 25 22 29 30 30 16 355
199 196 197 198 199 200 198 196 190 185 173 165 161 157 152 152 150 148 144 135 122 97 77 72 69 63 55 68 77 64 41 30 28 32 31 21 12 0 4 5 5 359 355
204 198 198 199 199 200 199 195 193 189 180 173 167 160 155 154 155 155 151 144 131 108 93 83 74 62 61 66 63 52 45 33 22 28 24 16 11 356 349 348 342 340 347
206 201 199 198 200 199 198 196 193 193 185 177 173 167 160 159 158 158 155 152 142 126 109 97 81 62 58 62 65 56 50 50 24 30 20 11 8 1 352 345 342 334 333
205 201 202 199 199 198 196 196 194 195 189 181 176 172 164 165 161 162 160 160 155 131 115 101 83 60 58 57 49 40 36 40 32 23 19 11 5 5 359 349 344 333 326
205 200 201 202 201 199 197 195 195 196 191 186 179 176 171 170 166 169 166 161 164 136 125 116 103 67 61 53 35 35 30 34 27 17 13 7 360 359 358 354 341 334 330
202 202 199 202 202 200 198 197 198 196 194 187 182 178 173 176 174 173 170 166 168 147 140 135 119 79 57 43 20 20 22 18 13 12 6 0 352 352 347 344 343 341 339
202 200 198 198 200 200 199 199 198 197 195 189 188 179 175 178 177 177 177 173 169 156 145 145 129 77 60 12 359 0 0 1 358 356 357 352 351 346 344 344 342 342 341
201 199 198 198 198 200 202 202 201 199 195 194 192 184 180 182 177 185 183 179 174 161 150 149 146 57 32 341 329 339 337 340 342 343 343 345 342 342 339 341 341 338 338
202 200 199 199 198 200 201 203 203 199 196 197 195 192 186 187 181 185 185 185 178 164 160 152 179 308 310 306 312 324 327 330 331 334 336 335 336 336 335 339 337 334 334
203 204 198 199 198 202 204 204 204 202 199 199 197 196 194 193 189 189 187 187 180 175 168 163 219 270 297 310 317 318 321 322 325 327 327 327 327 327 328 331 330 330 330
205 204 201 197 199 202 203 204 205 204 202 201 202 199 198 196 196 190 192 192 189 193 185 190 236 276 292 306 315 313 313 315 317 318 319 320 321 322 324 326 326 327 326
206 207 205 200 200 202 201 201 203 206 204 201 203 204 201 198 201 198 199 202 194 203 199 209 248 272 295 308 311 309 310 311 312 312 313 313 315 317 318 321 323 323 322
219 206 207 204 197 203 201 201 202 205 208 206 206 207 206 202 201 205 208 207 209 209 216 217 246 280 295 301 303 303 303 304 308 310 311 310 311 313 316 317 318 318 316
238 244 214 220 212 196 199 202 201 204 208 210 211 211 208 208 209 208 213 215 223 217 228 237 253 274 286 293 297 300 303 304 305 303 303 304 306 308 309 311 312 311 311
224 221 241 231 225 207 198 195 198 203 206 209 213 215 213 211 215 215 218 225 231 231 236 242 252 265 277 284 290 297 302 304 303 301 300 299 299 301 303 305 306 308 307
235 226 247 227 238 218 197 200 198 204 209 213 218 217 215 217 220 220 221 228 233 236 240 248 255 264 271 278 286 292 296 297 298 298 296 295 295 298 300 303 305 304 304
245 234 240 240 243 216 209 205 207 210 213 214 215 218 219 218 218 224 225 227 234 240 245 250 255 262 270 277 284 287 290 292 293 293 291 290 293 297 301 301 300 299 298
245 251 237 246 253 221 259 213 187 208 227 231 223 224 226 226 222 224 230 237 239 240 246 253 258 264 269 273 278 282 287 288 288 287 287 289 292 294 294 294 295 294 295
244 247 258 235 240 239 241 211 226 228 212 222 220 218 224 228 226 226 228 232 236 240 246 251 258 262 268 275 280 283 284 284 286 287 290 294 297 297 297 294 291 291 292
237 240 240 241 238 225 268 226 230 230 229 230 220 218 219 227 228 229 232 236 241 244 248 251 255 261 266 272 276 280 283 285 286 288 291 293 296 297 296 295 295 296 298
226 238 232 238 251 241 230 235 250 253 251 234 260 241 233 237 241 235 240 245 248 249 247 251 256 261 267 273 279 281 286 286 287 288 290 292 293 294 295 295 296 297 298